Location: Poigny-la-Forêt
(48.6876°N, 1.7701°E)
Time: 11:27:26
(UTC+02:00)

ISS - Pass Details

Date: 28 May 2019
Orbit: 407 x 418 km, 51.6° (Epoch: 24 June)

Event Time Altitude Azimuth Distance (km) Brightness Sun altitude
Rises 00:54:05 0° 290° (WNW) 2,362 0.5 -18.8°
Reaches altitude 10° 00:56:14 10° 283° (WNW) 1,498 -0.6 -18.9°
Enters shadow 00:58:44 36° 246° (WSW) 685 -2.8 -19.0°
